Time,TemperatureF,DewpointF,PressureIn,WindDirection,WindDirectionDegrees,WindSpeedMPH,WindSpeedGustMPH,Humidity,HourlyPrecipIn,Conditions,Clouds,dailyrainin,SoftwareType,DateUTC
2013-01-23 00:00:00,69.7,56.0,30.24,NNW,337,6.1,22.6,61,0.00,,,0.00,Rainwise IP-100,2013-01-23 05:00:00,
2013-01-23 00:02:00,69.7,56.0,30.24,NNE,22,11.0,22.6,61,0.00,,,0.00,Rainwise IP-100,2013-01-23 05:02:00,
2013-01-23 00:03:00,69.7,56.0,30.24,ENE,67,10.0,18.9,61,0.00,,,0.00,Rainwise IP-100,2013-01-23 05:03:00,
2013-01-23 00:08:00,69.7,56.0,30.24,NNE,22,16.8,19.6,61,0.00,,,0.00,Rainwise IP-100,2013-01-23 05:08:00,
2013-01-23 00:13:00,69.6,56.0,30.24,NNE,22,9.3,21.2,61,0.00,,,0.00,Rainwise IP-100,2013-01-23 05:13:00,
2013-01-23 00:18:00,69.6,55.0,30.24,North,360,14.0,19.1,60,0.00,,,0.00,Rainwise IP-100,2013-01-23 05:18:00,
2013-01-23 00:23:00,69.5,54.5,30.24,NNW,337,14.0,17.5,59,0.00,,,0.00,Rainwise IP-100,2013-01-23 05:23:00,
2013-01-23 00:28:00,69.5,54.5,30.24,NE,45,14.9,20.8,59,0.00,,,0.00,Rainwise IP-100,2013-01-23 05:28:00,
2013-01-23 00:34:00,69.5,54.5,30.25,East,90,4.9,18.7,59,0.00,,,0.00,Rainwise IP-100,2013-01-23 05:34:00,
2013-01-23 00:39:00,69.5,54.5,30.25,North,360,14.5,18.4,59,0.00,,,0.00,Rainwise IP-100,2013-01-23 05:39:00,
2013-01-23 00:44:00,69.5,54.5,30.25,North,360,7.5,20.5,59,0.00,,,0.00,Rainwise IP-100,2013-01-23 05:44:00,
2013-01-23 00:49:00,69.5,55.0,30.25,ENE,67,5.4,16.3,60,0.00,,,0.00,Rainwise IP-100,2013-01-23 05:49:00,
2013-01-23 00:54:00,69.4,54.0,30.25,ENE,67,7.5,21.5,59,0.00,,,0.00,Rainwise IP-100,2013-01-23 05:54:00,
2013-01-23 00:59:00,69.4,54.0,30.25,NNE,22,7.5,20.3,59,0.00,,,0.00,Rainwise IP-100,2013-01-23 05:59:00,
2013-01-23 01:04:00,69.4,54.0,30.24,North,360,13.1,21.0,59,0.00,,,0.00,Rainwise IP-100,2013-01-23 06:04:00,
2013-01-23 01:10:00,69.4,53.5,30.24,NNE,22,18.9,18.9,57,0.00,,,0.00,Rainwise IP-100,2013-01-23 06:10:00,
2013-01-23 01:15:00,69.5,54.0,30.24,NE,45,18.0,18.9,57,0.00,,,0.00,Rainwise IP-100,2013-01-23 06:15:00,
2013-01-23 01:20:00,69.5,54.0,30.25,North,360,9.8,23.8,57,0.00,,,0.00,Rainwise IP-100,2013-01-23 06:20:00,
2013-01-23 01:25:00,69.4,54.0,30.25,NNE,22,9.8,17.5,58,0.00,,,0.00,Rainwise IP-100,2013-01-23 06:25:00,
2013-01-23 01:30:00,69.3,54.0,30.24,NNE,22,11.0,20.3,58,0.00,,,0.00,Rainwise IP-100,2013-01-23 06:30:00,
2013-01-23 01:35:00,69.4,54.0,30.25,NE,45,9.8,22.6,58,0.00,,,0.00,Rainwise IP-100,2013-01-23 06:35:00,
2013-01-23 01:40:00,69.4,54.0,30.25,NE,45,5.4,19.4,59,0.00,,,0.00,Rainwise IP-100,2013-01-23 06:40:00,
2013-01-23 01:45:00,69.3,54.5,30.25,NNE,22,8.6,16.1,60,0.00,,,0.00,Rainwise IP-100,2013-01-23 06:45:00,
2013-01-23 01:51:00,69.3,55.0,30.24,NNE,22,13.1,18.0,61,0.00,,,0.00,Rainwise IP-100,2013-01-23 06:51:00,
2013-01-23 01:56:00,69.2,54.5,30.24,NNE,22,10.3,20.3,60,0.00,,,0.00,Rainwise IP-100,2013-01-23 06:56:00,
2013-01-23 02:01:00,69.2,54.5,30.24,NNE,22,14.0,21.7,60,0.00,,,0.00,Rainwise IP-100,2013-01-23 07:01:00,
2013-01-23 02:06:00,69.3,54.0,30.24,NE,45,7.0,15.6,59,0.00,,,0.00,Rainwise IP-100,2013-01-23 07:06:00,
2013-01-23 02:11:00,69.3,54.0,30.24,ENE,67,13.8,16.6,59,0.00,,,0.00,Rainwise IP-100,2013-01-23 07:11:00,
2013-01-23 02:16:00,69.2,54.5,30.24,NNE,22,14.0,20.8,60,0.00,,,0.00,Rainwise IP-100,2013-01-23 07:16:00,
2013-01-23 02:22:00,69.2,55.0,30.24,ENE,67,5.6,18.4,61,0.00,,,0.00,Rainwise IP-100,2013-01-23 07:22:00,
2013-01-23 02:27:00,69.2,55.0,30.24,NE,45,16.6,22.6,61,0.00,,,0.00,Rainwise IP-100,2013-01-23 07:27:00,
2013-01-23 02:32:00,69.3,55.0,30.24,NNE,22,8.6,22.6,61,0.00,,,0.00,Rainwise IP-100,2013-01-23 07:32:00,
2013-01-23 02:37:00,69.2,55.0,30.25,NNE,22,6.8,20.3,61,0.00,,,0.00,Rainwise IP-100,2013-01-23 07:37:00,
2013-01-23 02:42:00,69.3,55.0,30.25,NE,45,8.4,19.1,61,0.00,,,0.00,Rainwise IP-100,2013-01-23 07:42:00,
2013-01-23 02:47:00,69.2,55.0,30.25,NE,45,12.1,18.0,61,0.00,,,0.00,Rainwise IP-100,2013-01-23 07:47:00,
2013-01-23 02:52:00,69.1,54.5,30.25,NE,45,9.1,17.3,61,0.00,,,0.00,Rainwise IP-100,2013-01-23 07:52:00,
2013-01-23 02:58:00,69.1,54.5,30.25,ENE,67,12.6,18.7,60,0.00,,,0.00,Rainwise IP-100,2013-01-23 07:58:00,
2013-01-23 03:03:00,69.0,54.5,30.25,ENE,67,12.4,19.6,60,0.00,,,0.00,Rainwise IP-100,2013-01-23 08:03:00,
2013-01-23 03:08:00,69.1,54.0,30.25,NE,45,17.3,20.3,59,0.00,,,0.00,Rainwise IP-100,2013-01-23 08:08:00,
2013-01-23 03:13:00,69.1,53.5,30.25,NNE,22,14.0,19.6,58,0.00,,,0.00,Rainwise IP-100,2013-01-23 08:13:00,
2013-01-23 03:18:00,69.1,53.5,30.25,ENE,67,5.4,17.0,58,0.00,,,0.00,Rainwise IP-100,2013-01-23 08:18:00,
2013-01-23 03:23:00,69.0,54.0,30.25,NE,45,13.8,18.2,59,0.00,,,0.00,Rainwise IP-100,2013-01-23 08:23:00,
2013-01-23 03:28:00,69.0,53.5,30.25,NNE,22,11.2,16.3,58,0.00,,,0.00,Rainwise IP-100,2013-01-23 08:28:00,
2013-01-23 03:33:00,68.9,53.5,30.25,NNE,22,12.8,18.4,58,0.00,,,0.00,Rainwise IP-100,2013-01-23 08:33:00,
2013-01-23 03:39:00,68.9,54.0,30.25,NNE,22,6.8,15.2,59,0.00,,,0.00,Rainwise IP-100,2013-01-23 08:39:00,
2013-01-23 03:44:00,68.9,54.0,30.24,ENE,67,15.9,16.1,59,0.00,,,0.00,Rainwise IP-100,2013-01-23 08:44:00,
2013-01-23 03:49:00,69.0,53.5,30.25,NE,45,14.2,21.7,58,0.00,,,0.00,Rainwise IP-100,2013-01-23 08:49:00,
2013-01-23 03:54:00,69.0,53.5,30.25,NE,45,10.7,18.2,58,0.00,,,0.00,Rainwise IP-100,2013-01-23 08:54:00,
2013-01-23 03:59:00,69.0,53.0,30.24,NE,45,14.5,18.7,57,0.00,,,0.00,Rainwise IP-100,2013-01-23 08:59:00,
2013-01-23 04:04:00,68.9,53.0,30.24,NE,45,12.1,16.8,57,0.00,,,0.00,Rainwise IP-100,2013-01-23 09:04:00,
2013-01-23 04:10:00,68.9,53.5,30.24,NNE,22,12.8,15.6,58,0.00,,,0.00,Rainwise IP-100,2013-01-23 09:10:00,
2013-01-23 04:15:00,68.9,54.0,30.24,NE,45,10.0,17.5,59,0.00,,,0.00,Rainwise IP-100,2013-01-23 09:15:00,
2013-01-23 04:20:00,68.9,54.5,30.25,NNE,22,12.4,19.6,60,0.00,,,0.00,Rainwise IP-100,2013-01-23 09:20:00,
2013-01-23 04:25:00,68.9,54.0,30.25,NE,45,7.2,16.1,59,0.00,,,0.00,Rainwise IP-100,2013-01-23 09:25:00,
2013-01-23 04:30:00,68.9,54.0,30.24,NE,45,12.6,19.6,59,0.00,,,0.00,Rainwise IP-100,2013-01-23 09:30:00,
2013-01-23 04:35:00,68.9,54.0,30.24,ENE,67,12.1,16.6,59,0.00,,,0.00,Rainwise IP-100,2013-01-23 09:35:00,
2013-01-23 04:40:00,68.9,54.0,30.24,NE,45,16.3,17.7,59,0.00,,,0.00,Rainwise IP-100,2013-01-23 09:40:00,
2013-01-23 04:45:00,68.9,54.0,30.24,NE,45,10.3,19.6,59,0.00,,,0.00,Rainwise IP-100,2013-01-23 09:45:00,
2013-01-23 04:50:00,68.9,54.0,30.24,NNE,22,6.8,18.2,59,0.00,,,0.00,Rainwise IP-100,2013-01-23 09:50:00,
2013-01-23 04:55:00,68.9,53.5,30.24,NNE,22,10.0,17.3,58,0.00,,,0.00,Rainwise IP-100,2013-01-23 09:55:00,
2013-01-23 05:00:00,68.9,53.5,30.24,NNW,337,7.0,18.2,58,0.00,,,0.00,Rainwise IP-100,2013-01-23 10:00:00,
2013-01-23 05:05:00,68.8,54.0,30.24,NNW,337,7.0,18.9,59,0.00,,,0.00,Rainwise IP-100,2013-01-23 10:05:00,
2013-01-23 05:11:00,68.9,54.0,30.25,NNE,22,14.9,18.2,59,0.00,,,0.00,Rainwise IP-100,2013-01-23 10:11:00,
2013-01-23 05:16:00,68.9,54.0,30.25,NE,45,15.9,19.6,59,0.00,,,0.00,Rainwise IP-100,2013-01-23 10:16:00,
2013-01-23 05:21:00,68.9,53.5,30.25,ENE,67,7.0,16.3,58,0.00,,,0.00,Rainwise IP-100,2013-01-23 10:21:00,
2013-01-23 05:26:00,68.9,54.0,30.25,NE,45,6.5,20.5,59,0.00,,,0.00,Rainwise IP-100,2013-01-23 10:26:00,
2013-01-23 05:31:00,68.9,53.5,30.24,ENE,67,11.4,19.4,58,0.00,,,0.00,Rainwise IP-100,2013-01-23 10:31:00,
2013-01-23 05:36:00,68.9,53.0,30.25,ENE,67,6.3,18.0,57,0.00,,,0.00,Rainwise IP-100,2013-01-23 10:36:00,
2013-01-23 05:41:00,69.0,52.0,30.26,ENE,67,8.4,18.2,55,0.00,,,0.00,Rainwise IP-100,2013-01-23 10:41:00,
2013-01-23 05:47:00,69.0,53.0,30.26,ENE,67,12.4,15.9,56,0.00,,,0.00,Rainwise IP-100,2013-01-23 10:47:00,
2013-01-23 05:52:00,69.0,53.0,30.26,NNE,22,6.5,16.8,56,0.00,,,0.00,Rainwise IP-100,2013-01-23 10:52:00,
2013-01-23 05:57:00,69.0,52.0,30.26,NE,45,15.6,18.0,55,0.00,,,0.00,Rainwise IP-100,2013-01-23 10:57:00,
2013-01-23 06:02:00,69.0,52.0,30.26,NNE,22,7.2,15.6,55,0.00,,,0.00,Rainwise IP-100,2013-01-23 11:02:00,
2013-01-23 06:07:00,69.0,52.0,30.27,NNE,22,6.1,13.3,55,0.00,,,0.00,Rainwise IP-100,2013-01-23 11:07:00,
2013-01-23 06:12:00,69.0,53.0,30.27,NNE,22,8.4,19.1,56,0.00,,,0.00,Rainwise IP-100,2013-01-23 11:12:00,
2013-01-23 06:17:00,69.0,53.0,30.27,NE,45,9.3,17.3,57,0.00,,,0.00,Rainwise IP-100,2013-01-23 11:17:00,
2013-01-23 06:22:00,69.0,53.0,30.27,NNE,22,12.4,16.3,57,0.00,,,0.00,Rainwise IP-100,2013-01-23 11:22:00,
2013-01-23 06:28:00,69.0,52.0,30.28,NNW,337,7.2,17.3,55,0.00,,,0.00,Rainwise IP-100,2013-01-23 11:28:00,
2013-01-23 06:33:00,69.0,53.0,30.28,ENE,67,11.2,12.6,56,0.00,,,0.00,Rainwise IP-100,2013-01-23 11:33:00,
2013-01-23 06:38:00,69.0,53.0,30.27,ENE,67,8.9,17.0,57,0.00,,,0.00,Rainwise IP-100,2013-01-23 11:38:00,
2013-01-23 06:43:00,69.0,53.0,30.27,NNE,22,8.4,17.5,56,0.00,,,0.00,Rainwise IP-100,2013-01-23 11:43:00,
2013-01-23 06:48:00,69.0,52.0,30.27,ENE,67,11.2,19.6,55,0.00,,,0.00,Rainwise IP-100,2013-01-23 11:48:00,
2013-01-23 06:53:00,69.1,53.0,30.28,NNE,22,10.3,16.8,56,0.00,,,0.00,Rainwise IP-100,2013-01-23 11:53:00,
2013-01-23 06:58:00,69.1,51.0,30.28,NNE,22,8.6,15.2,54,0.00,,,0.00,Rainwise IP-100,2013-01-23 11:58:00,
2013-01-23 07:03:00,69.1,51.0,30.28,NNE,22,9.8,16.1,53,0.00,,,0.00,Rainwise IP-100,2013-01-23 12:03:00,
2013-01-23 07:09:00,69.1,51.0,30.28,ENE,67,8.9,19.4,53,0.00,,,0.00,Rainwise IP-100,2013-01-23 12:09:00,
2013-01-23 07:14:00,69.2,52.0,30.28,NNE,22,8.4,16.3,54,0.00,,,0.00,Rainwise IP-100,2013-01-23 12:14:00,
2013-01-23 07:19:00,69.1,51.0,30.28,NE,45,12.1,19.4,54,0.00,,,0.00,Rainwise IP-100,2013-01-23 12:19:00,
2013-01-23 07:24:00,69.2,53.0,30.29,NE,45,7.2,16.6,55,0.00,,,0.00,Rainwise IP-100,2013-01-23 12:24:00,
2013-01-23 07:29:00,69.2,53.0,30.29,NE,45,7.7,12.1,56,0.00,,,0.00,Rainwise IP-100,2013-01-23 12:29:00,
2013-01-23 07:34:00,69.2,53.0,30.28,NNE,22,7.7,17.7,55,0.00,,,0.00,Rainwise IP-100,2013-01-23 12:34:00,
2013-01-23 07:39:00,69.2,52.0,30.29,ENE,67,9.3,18.7,54,0.00,,,0.00,Rainwise IP-100,2013-01-23 12:39:00,
2013-01-23 07:44:00,69.3,52.0,30.29,NNE,22,7.7,18.4,54,0.00,,,0.00,Rainwise IP-100,2013-01-23 12:44:00,
2013-01-23 07:50:00,69.3,52.0,30.29,NE,45,14.0,16.6,54,0.00,,,0.00,Rainwise IP-100,2013-01-23 12:50:00,
2013-01-23 07:55:00,69.2,53.0,30.30,NE,45,10.0,17.3,55,0.00,,,0.00,Rainwise IP-100,2013-01-23 12:55:00,
2013-01-23 08:00:00,69.3,53.0,30.30,NNW,337,10.0,17.7,56,0.00,,,0.00,Rainwise IP-100,2013-01-23 13:00:00,
2013-01-23 08:05:00,69.3,53.0,30.30,NNE,22,8.4,18.2,55,0.00,,,0.00,Rainwise IP-100,2013-01-23 13:05:00,
2013-01-23 08:10:00,69.4,53.0,30.30,ENE,67,7.0,17.7,55,0.00,,,0.00,Rainwise IP-100,2013-01-23 13:10:00,
2013-01-23 08:15:00,69.5,53.0,30.30,NNE,22,8.4,16.8,55,0.00,,,0.00,Rainwise IP-100,2013-01-23 13:15:00,
2013-01-23 08:20:00,69.6,53.0,30.30,NE,45,11.9,16.1,55,0.00,,,0.00,Rainwise IP-100,2013-01-23 13:20:00,
2013-01-23 08:26:00,69.5,53.5,30.30,ENE,67,12.4,17.3,56,0.00,,,0.00,Rainwise IP-100,2013-01-23 13:26:00,
2013-01-23 08:31:00,69.5,53.5,30.30,NE,45,11.2,17.0,56,0.00,,,0.00,Rainwise IP-100,2013-01-23 13:31:00,
2013-01-23 08:36:00,69.6,53.5,30.31,NNE,22,9.1,18.7,56,0.00,,,0.00,Rainwise IP-100,2013-01-23 13:36:00,
2013-01-23 08:41:00,69.7,53.5,30.31,NNE,22,3.7,15.4,56,0.00,,,0.00,Rainwise IP-100,2013-01-23 13:41:00,
2013-01-23 08:46:00,69.4,53.0,30.32,NNW,337,1.9,9.3,56,0.00,,,0.00,Rainwise IP-100,2013-01-23 13:46:00,
2013-01-23 08:51:00,67.8,53.5,30.32,NNW,337,2.6,6.5,60,0.00,,,0.00,Rainwise IP-100,2013-01-23 13:51:00,
2013-01-23 08:56:00,67.1,54.0,30.32,NNE,22,1.9,7.5,62,0.00,,,0.00,Rainwise IP-100,2013-01-23 13:56:00,
2013-01-23 09:01:00,68.1,54.5,30.32,WNW,292,4.0,14.5,62,0.00,,,0.00,Rainwise IP-100,2013-01-23 14:01:00,
2013-01-23 09:07:00,68.5,54.5,30.32,NNW,337,4.2,7.2,61,0.00,,,0.00,Rainwise IP-100,2013-01-23 14:07:00,
2013-01-23 09:12:00,68.0,54.5,30.32,NNW,337,4.9,7.2,62,0.00,,,0.00,Rainwise IP-100,2013-01-23 14:12:00,
2013-01-23 09:17:00,68.3,55.0,30.33,NW,315,3.7,9.8,63,0.00,,,0.00,Rainwise IP-100,2013-01-23 14:17:00,
2013-01-23 09:22:00,69.0,54.5,30.33,NNE,22,6.5,13.8,60,0.00,,,0.00,Rainwise IP-100,2013-01-23 14:22:00,
2013-01-23 09:27:00,70.1,54.0,30.32,ENE,67,2.1,11.7,57,0.00,,,0.00,Rainwise IP-100,2013-01-23 14:27:00,
2013-01-23 09:32:00,71.1,53.5,30.32,NNW,337,7.0,14.7,54,0.00,,,0.00,Rainwise IP-100,2013-01-23 14:32:00,
2013-01-23 09:37:00,71.2,53.5,30.33,NW,315,4.2,11.9,53,0.00,,,0.00,Rainwise IP-100,2013-01-23 14:37:00,
2013-01-23 09:42:00,70.4,54.0,30.33,ENE,67,2.6,10.7,56,0.00,,,0.00,Rainwise IP-100,2013-01-23 14:42:00,
2013-01-23 09:47:00,70.4,54.5,30.34,NNW,337,0.0,11.2,57,0.00,,,0.00,Rainwise IP-100,2013-01-23 14:47:00,
2013-01-23 09:53:00,71.2,54.5,30.34,NE,45,3.5,7.9,56,0.00,,,0.00,Rainwise IP-100,2013-01-23 14:53:00,
2013-01-23 09:58:00,71.2,54.5,30.34,NNW,337,3.3,11.2,56,0.00,,,0.00,Rainwise IP-100,2013-01-23 14:58:00,
2013-01-23 10:03:00,70.3,54.5,30.34,ENE,67,0.0,7.7,57,0.00,,,0.00,Rainwise IP-100,2013-01-23 15:03:00,
2013-01-23 10:08:00,69.8,54.5,30.34,NNW,337,5.8,12.4,59,0.00,,,0.00,Rainwise IP-100,2013-01-23 15:08:00,
2013-01-23 10:13:00,69.7,55.0,30.34,NNW,337,3.7,8.2,60,0.00,,,0.00,Rainwise IP-100,2013-01-23 15:13:00,
2013-01-23 10:18:00,69.2,55.0,30.34,NNE,22,5.8,8.4,61,0.00,,,0.00,Rainwise IP-100,2013-01-23 15:18:00,
2013-01-23 10:23:00,69.3,54.5,30.34,NNE,22,3.0,10.3,60,0.00,,,0.00,Rainwise IP-100,2013-01-23 15:23:00,
2013-01-23 10:29:00,69.5,55.0,30.34,NE,45,4.9,7.9,60,0.00,,,0.00,Rainwise IP-100,2013-01-23 15:29:00,
2013-01-23 10:34:00,69.8,54.0,30.34,NNE,22,6.1,16.1,58,0.00,,,0.00,Rainwise IP-100,2013-01-23 15:34:00,
2013-01-23 10:39:00,70.3,54.0,30.34,NNE,22,7.7,12.8,56,0.00,,,0.00,Rainwise IP-100,2013-01-23 15:39:00,
2013-01-23 10:44:00,70.7,53.5,30.34,North,360,2.6,13.8,54,0.00,,,0.00,Rainwise IP-100,2013-01-23 15:44:00,
2013-01-23 10:49:00,71.1,53.0,30.34,NNE,22,6.3,14.0,53,0.00,,,0.00,Rainwise IP-100,2013-01-23 15:49:00,
2013-01-23 10:54:00,71.2,53.0,30.34,NNE,22,8.2,11.0,52,0.00,,,0.00,Rainwise IP-100,2013-01-23 15:54:00,
2013-01-23 10:59:00,71.0,53.0,30.34,NE,45,5.4,14.7,53,0.00,,,0.00,Rainwise IP-100,2013-01-23 15:59:00,
2013-01-23 11:04:00,70.9,53.0,30.34,North,360,4.7,15.2,53,0.00,,,0.00,Rainwise IP-100,2013-01-23 16:04:00,
2013-01-23 11:10:00,71.0,53.5,30.34,NNE,22,11.7,16.6,54,0.00,,,0.00,Rainwise IP-100,2013-01-23 16:10:00,
2013-01-23 11:15:00,71.3,54.0,30.34,North,360,10.3,15.2,54,0.00,,,0.00,Rainwise IP-100,2013-01-23 16:15:00,
2013-01-23 11:20:00,71.5,53.5,30.33,ENE,67,7.2,18.7,53,0.00,,,0.00,Rainwise IP-100,2013-01-23 16:20:00,
2013-01-23 11:25:00,71.7,53.5,30.33,NE,45,14.7,16.1,53,0.00,,,0.00,Rainwise IP-100,2013-01-23 16:25:00,
2013-01-23 11:30:00,71.8,53.5,30.32,NNE,22,13.1,18.0,53,0.00,,,0.00,Rainwise IP-100,2013-01-23 16:30:00,
2013-01-23 11:35:00,71.6,53.5,30.33,NE,45,6.1,14.9,53,0.00,,,0.00,Rainwise IP-100,2013-01-23 16:35:00,
2013-01-23 11:40:00,71.6,53.5,30.32,ENE,67,11.2,16.6,53,0.00,,,0.00,Rainwise IP-100,2013-01-23 16:40:00,
2013-01-23 11:46:00,71.8,53.5,30.32,NE,45,11.4,15.6,53,0.00,,,0.00,Rainwise IP-100,2013-01-23 16:46:00,
2013-01-23 11:51:00,71.7,53.5,30.32,NE,45,10.0,16.6,53,0.00,,,0.00,Rainwise IP-100,2013-01-23 16:51:00,
2013-01-23 11:56:00,71.9,54.0,30.32,ENE,67,14.5,19.1,53,0.00,,,0.00,Rainwise IP-100,2013-01-23 16:56:00,
2013-01-23 12:01:00,71.9,54.0,30.31,ENE,67,16.6,16.6,53,0.00,,,0.00,Rainwise IP-100,2013-01-23 17:01:00,
2013-01-23 12:06:00,71.9,54.0,30.31,ENE,67,10.3,18.9,53,0.00,,,0.00,Rainwise IP-100,2013-01-23 17:06:00,
2013-01-23 12:11:00,72.0,53.5,30.32,NE,45,10.7,18.0,52,0.00,,,0.00,Rainwise IP-100,2013-01-23 17:11:00,
2013-01-23 12:16:00,71.9,53.5,30.31,NNE,22,4.4,18.2,52,0.00,,,0.00,Rainwise IP-100,2013-01-23 17:16:00,
2013-01-23 12:21:00,71.6,53.5,30.31,NE,45,14.2,15.6,53,0.00,,,0.00,Rainwise IP-100,2013-01-23 17:21:00,
2013-01-23 12:27:00,71.4,54.0,30.30,ENE,67,11.9,19.1,54,0.00,,,0.00,Rainwise IP-100,2013-01-23 17:27:00,
2013-01-23 12:32:00,71.3,54.0,30.30,ENE,67,11.7,17.5,54,0.00,,,0.00,Rainwise IP-100,2013-01-23 17:32:00,
2013-01-23 12:37:00,71.3,54.0,30.30,ENE,67,13.8,17.3,54,0.00,,,0.00,Rainwise IP-100,2013-01-23 17:37:00,
2013-01-23 12:42:00,71.5,53.5,30.29,NE,45,8.9,18.4,53,0.00,,,0.00,Rainwise IP-100,2013-01-23 17:42:00,
2013-01-23 12:47:00,71.4,53.5,30.30,NE,45,14.5,18.0,53,0.00,,,0.00,Rainwise IP-100,2013-01-23 17:47:00,
2013-01-23 12:52:00,71.7,53.5,30.30,NE,45,11.9,16.8,53,0.00,,,0.00,Rainwise IP-100,2013-01-23 17:52:00,
2013-01-23 12:57:00,72.0,53.5,30.30,ENE,67,7.2,15.4,52,0.00,,,0.00,Rainwise IP-100,2013-01-23 17:57:00,
2013-01-23 13:03:00,71.7,53.0,30.30,ENE,67,8.6,16.3,51,0.00,,,0.00,Rainwise IP-100,2013-01-23 18:03:00,
2013-01-23 13:08:00,71.5,53.0,30.30,NNE,22,8.2,16.8,51,0.00,,,0.00,Rainwise IP-100,2013-01-23 18:08:00,
2013-01-23 13:13:00,71.6,53.5,30.29,NE,45,6.8,17.0,52,0.00,,,0.00,Rainwise IP-100,2013-01-23 18:13:00,
2013-01-23 13:18:00,71.8,53.5,30.29,NNE,22,11.9,14.0,52,0.00,,,0.00,Rainwise IP-100,2013-01-23 18:18:00,
2013-01-23 13:23:00,71.9,53.5,30.28,ENE,67,11.9,16.8,52,0.00,,,0.00,Rainwise IP-100,2013-01-23 18:23:00,
2013-01-23 13:28:00,71.6,53.5,30.28,ENE,67,7.2,18.2,52,0.00,,,0.00,Rainwise IP-100,2013-01-23 18:28:00,
2013-01-23 13:33:00,71.6,53.5,30.28,NE,45,7.9,18.7,52,0.00,,,0.00,Rainwise IP-100,2013-01-23 18:33:00,
2013-01-23 13:38:00,71.7,53.5,30.28,NE,45,15.4,18.4,52,0.00,,,0.00,Rainwise IP-100,2013-01-23 18:38:00,
2013-01-23 13:44:00,71.6,53.0,30.27,ENE,67,8.2,18.9,51,0.00,,,0.00,Rainwise IP-100,2013-01-23 18:44:00,
2013-01-23 13:49:00,71.6,53.5,30.27,ENE,67,15.2,16.8,52,0.00,,,0.00,Rainwise IP-100,2013-01-23 18:49:00,
2013-01-23 13:54:00,71.7,53.5,30.27,NE,45,14.2,16.8,52,0.00,,,0.00,Rainwise IP-100,2013-01-23 18:54:00,
2013-01-23 13:59:00,71.6,53.5,30.28,ENE,67,11.9,18.0,52,0.00,,,0.00,Rainwise IP-100,2013-01-23 18:59:00,
2013-01-23 14:04:00,71.7,53.5,30.28,ENE,67,8.9,13.8,53,0.00,,,0.00,Rainwise IP-100,2013-01-23 19:04:00,
2013-01-23 14:09:00,71.7,53.5,30.27,ENE,67,10.3,13.8,52,0.00,,,0.00,Rainwise IP-100,2013-01-23 19:09:00,
2013-01-23 14:14:00,71.8,53.5,30.28,ENE,67,5.6,18.0,52,0.00,,,0.00,Rainwise IP-100,2013-01-23 19:14:00,
2013-01-23 14:20:00,71.9,53.5,30.27,NE,45,8.9,14.9,52,0.00,,,0.00,Rainwise IP-100,2013-01-23 19:20:00,
2013-01-23 14:25:00,71.6,53.5,30.28,ENE,67,6.5,16.3,52,0.00,,,0.00,Rainwise IP-100,2013-01-23 19:25:00,
2013-01-23 14:30:00,71.5,53.5,30.28,ENE,67,9.6,15.6,52,0.00,,,0.00,Rainwise IP-100,2013-01-23 19:30:00,
2013-01-23 14:35:00,71.5,53.5,30.28,ENE,67,5.4,13.1,52,0.00,,,0.00,Rainwise IP-100,2013-01-23 19:35:00,
2013-01-23 14:40:00,71.5,53.5,30.28,ENE,67,5.8,13.8,52,0.00,,,0.00,Rainwise IP-100,2013-01-23 19:40:00,
2013-01-23 14:45:00,71.5,53.5,30.27,ENE,67,10.3,12.1,52,0.00,,,0.00,Rainwise IP-100,2013-01-23 19:45:00,
2013-01-23 14:50:00,71.6,53.5,30.27,NE,45,11.9,14.7,52,0.00,,,0.00,Rainwise IP-100,2013-01-23 19:50:00,
2013-01-23 14:55:00,71.5,53.0,30.27,ENE,67,12.1,15.6,51,0.00,,,0.00,Rainwise IP-100,2013-01-23 19:55:00,
2013-01-23 15:01:00,71.5,53.0,30.27,NE,45,8.4,15.4,51,0.00,,,0.00,Rainwise IP-100,2013-01-23 20:01:00,
2013-01-23 15:06:00,71.6,53.0,30.27,ENE,67,10.5,13.1,51,0.00,,,0.00,Rainwise IP-100,2013-01-23 20:06:00,
2013-01-23 15:11:00,71.5,53.0,30.27,ENE,67,4.2,15.6,51,0.00,,,0.00,Rainwise IP-100,2013-01-23 20:11:00,
2013-01-23 15:16:00,71.4,52.0,30.27,NE,45,8.9,13.5,51,0.00,,,0.00,Rainwise IP-100,2013-01-23 20:16:00,
2013-01-23 15:21:00,71.5,53.0,30.27,NE,45,7.2,16.8,51,0.00,,,0.00,Rainwise IP-100,2013-01-23 20:21:00,
2013-01-23 15:26:00,71.8,53.5,30.27,NE,45,7.9,12.6,52,0.00,,,0.00,Rainwise IP-100,2013-01-23 20:26:00,
2013-01-23 15:31:00,71.5,53.5,30.26,NE,45,10.0,14.9,52,0.00,,,0.00,Rainwise IP-100,2013-01-23 20:31:00,
2013-01-23 15:37:00,71.3,53.5,30.28,NE,45,13.5,15.4,53,0.00,,,0.00,Rainwise IP-100,2013-01-23 20:37:00,
2013-01-23 15:42:00,71.3,53.5,30.28,NE,45,12.8,16.8,53,0.00,,,0.00,Rainwise IP-100,2013-01-23 20:42:00,
2013-01-23 15:47:00,71.2,53.5,30.27,NNE,22,5.6,17.0,53,0.00,,,0.00,Rainwise IP-100,2013-01-23 20:47:00,
2013-01-23 15:52:00,71.2,53.5,30.27,ENE,67,8.4,12.1,53,0.00,,,0.00,Rainwise IP-100,2013-01-23 20:52:00,
2013-01-23 15:57:00,71.1,53.0,30.28,North,360,8.4,12.8,53,0.00,,,0.00,Rainwise IP-100,2013-01-23 20:57:00,
2013-01-23 16:02:00,71.3,53.0,30.28,ENE,67,10.7,14.5,52,0.00,,,0.00,Rainwise IP-100,2013-01-23 21:02:00,
2013-01-23 16:07:00,71.3,53.5,30.28,ENE,67,7.5,13.8,53,0.00,,,0.00,Rainwise IP-100,2013-01-23 21:07:00,
2013-01-23 16:12:00,71.3,54.0,30.28,ENE,67,8.9,14.7,54,0.00,,,0.00,Rainwise IP-100,2013-01-23 21:12:00,
2013-01-23 16:18:00,71.6,54.0,30.28,ENE,67,6.5,11.9,54,0.00,,,0.00,Rainwise IP-100,2013-01-23 21:18:00,
2013-01-23 16:23:00,71.4,54.0,30.28,ENE,67,8.2,13.3,54,0.00,,,0.00,Rainwise IP-100,2013-01-23 21:23:00,
2013-01-23 16:28:00,71.1,53.5,30.28,NE,45,11.0,13.3,54,0.00,,,0.00,Rainwise IP-100,2013-01-23 21:28:00,
2013-01-23 16:33:00,71.2,53.5,30.29,ENE,67,7.7,15.4,53,0.00,,,0.00,Rainwise IP-100,2013-01-23 21:33:00,
2013-01-23 16:38:00,71.0,53.0,30.28,ENE,67,14.0,14.0,53,0.00,,,0.00,Rainwise IP-100,2013-01-23 21:38:00,
2013-01-23 16:43:00,71.1,53.5,30.28,NE,45,10.5,16.6,54,0.00,,,0.00,Rainwise IP-100,2013-01-23 21:43:00,
2013-01-23 16:48:00,71.0,53.0,30.28,NNE,22,4.4,17.3,53,0.00,,,0.00,Rainwise IP-100,2013-01-23 21:48:00,
2013-01-23 16:54:00,70.8,53.0,30.28,NE,45,9.8,13.8,53,0.00,,,0.00,Rainwise IP-100,2013-01-23 21:54:00,
2013-01-23 16:59:00,70.8,53.0,30.29,NNE,22,6.8,12.6,53,0.00,,,0.00,Rainwise IP-100,2013-01-23 21:59:00,
2013-01-23 17:04:00,70.8,53.0,30.28,NE,45,7.0,11.7,52,0.00,,,0.00,Rainwise IP-100,2013-01-23 22:04:00,
2013-01-23 17:09:00,70.8,53.0,30.28,ENE,67,8.9,15.6,53,0.00,,,0.00,Rainwise IP-100,2013-01-23 22:09:00,
2013-01-23 17:14:00,70.7,53.5,30.28,ENE,67,10.0,14.9,54,0.00,,,0.00,Rainwise IP-100,2013-01-23 22:14:00,
2013-01-23 17:19:00,70.5,53.5,30.28,NE,45,6.8,14.2,54,0.00,,,0.00,Rainwise IP-100,2013-01-23 22:19:00,
2013-01-23 17:24:00,70.4,53.5,30.28,NE,45,8.2,13.5,54,0.00,,,0.00,Rainwise IP-100,2013-01-23 22:24:00,
2013-01-23 17:29:00,70.3,53.5,30.29,NE,45,13.3,16.1,54,0.00,,,0.00,Rainwise IP-100,2013-01-23 22:29:00,
2013-01-23 17:35:00,70.1,53.5,30.28,ENE,67,7.0,16.3,56,0.00,,,0.00,Rainwise IP-100,2013-01-23 22:35:00,
2013-01-23 17:40:00,70.0,53.5,30.28,NNE,22,7.7,15.6,56,0.00,,,0.00,Rainwise IP-100,2013-01-23 22:40:00,
2013-01-23 17:45:00,70.0,53.5,30.29,North,360,9.3,14.7,56,0.00,,,0.00,Rainwise IP-100,2013-01-23 22:45:00,
2013-01-23 17:50:00,69.8,53.5,30.28,East,90,7.9,14.2,56,0.00,,,0.00,Rainwise IP-100,2013-01-23 22:50:00,
2013-01-23 17:55:00,69.7,53.5,30.29,NNE,22,7.5,14.0,56,0.00,,,0.00,Rainwise IP-100,2013-01-23 22:55:00,
2013-01-23 18:00:00,69.6,54.0,30.29,NE,45,7.5,14.0,58,0.00,,,0.00,Rainwise IP-100,2013-01-23 23:00:00,
2013-01-23 18:05:00,69.5,54.0,30.29,NNE,22,11.4,14.2,57,0.00,,,0.00,Rainwise IP-100,2013-01-23 23:05:00,
2013-01-23 18:11:00,69.5,54.0,30.29,ENE,67,10.0,14.9,57,0.00,,,0.00,Rainwise IP-100,2013-01-23 23:11:00,
2013-01-23 18:16:00,69.5,53.5,30.30,NNE,22,7.9,18.7,56,0.00,,,0.00,Rainwise IP-100,2013-01-23 23:16:00,
2013-01-23 18:21:00,69.5,53.5,30.29,NE,45,9.8,12.6,56,0.00,,,0.00,Rainwise IP-100,2013-01-23 23:21:00,
2013-01-23 18:26:00,69.5,53.5,30.29,NE,45,7.5,15.2,56,0.00,,,0.00,Rainwise IP-100,2013-01-23 23:26:00,
2013-01-23 18:31:00,69.5,54.0,30.29,NNE,22,5.4,19.6,57,0.00,,,0.00,Rainwise IP-100,2013-01-23 23:31:00,
2013-01-23 18:36:00,69.4,53.5,30.29,ENE,67,6.3,13.1,57,0.00,,,0.00,Rainwise IP-100,2013-01-23 23:36:00,
2013-01-23 18:41:00,69.4,53.0,30.29,NE,45,10.0,12.8,56,0.00,,,0.00,Rainwise IP-100,2013-01-23 23:41:00,
2013-01-23 18:46:00,69.4,53.5,30.29,NE,45,8.4,13.8,57,0.00,,,0.00,Rainwise IP-100,2013-01-23 23:46:00,
2013-01-23 18:52:00,69.3,54.0,30.29,NNE,22,9.1,14.9,59,0.00,,,0.00,Rainwise IP-100,2013-01-23 23:52:00,
2013-01-23 18:57:00,69.2,54.0,30.30,ENE,67,8.4,13.5,59,0.00,,,0.00,Rainwise IP-100,2013-01-23 23:57:00,
2013-01-23 19:02:00,69.3,53.5,30.29,ENE,67,4.7,14.9,57,0.00,,,0.00,Rainwise IP-100,2013-01-24 00:02:00,
2013-01-23 19:07:00,69.3,53.5,30.29,ENE,67,6.1,14.5,57,0.00,,,0.00,Rainwise IP-100,2013-01-24 00:07:00,
2013-01-23 19:12:00,69.2,53.5,30.30,NE,45,10.3,14.5,57,0.00,,,0.00,Rainwise IP-100,2013-01-24 00:12:00,
2013-01-23 19:17:00,69.2,53.5,30.31,NE,45,7.2,11.9,57,0.00,,,0.00,Rainwise IP-100,2013-01-24 00:17:00,
2013-01-23 19:22:00,69.3,53.5,30.31,NE,45,8.4,15.2,57,0.00,,,0.00,Rainwise IP-100,2013-01-24 00:22:00,
2013-01-23 19:28:00,69.2,54.0,30.31,ENE,67,7.9,13.1,58,0.00,,,0.00,Rainwise IP-100,2013-01-24 00:28:00,
2013-01-23 19:33:00,69.2,53.5,30.31,ENE,67,8.9,14.0,57,0.00,,,0.00,Rainwise IP-100,2013-01-24 00:33:00,
2013-01-23 19:38:00,69.2,53.5,30.31,NNE,22,8.4,13.1,57,0.00,,,0.00,Rainwise IP-100,2013-01-24 00:38:00,
2013-01-23 19:43:00,69.2,53.5,30.31,ENE,67,9.6,13.8,57,0.00,,,0.00,Rainwise IP-100,2013-01-24 00:43:00,
2013-01-23 19:48:00,69.2,53.5,30.31,NE,45,7.9,13.3,57,0.00,,,0.00,Rainwise IP-100,2013-01-24 00:48:00,
2013-01-23 19:53:00,69.2,53.0,30.31,NE,45,5.8,10.0,56,0.00,,,0.00,Rainwise IP-100,2013-01-24 00:53:00,
2013-01-23 19:58:00,69.2,53.5,30.31,ENE,67,6.1,10.0,57,0.00,,,0.00,Rainwise IP-100,2013-01-24 00:58:00,
2013-01-23 20:03:00,69.2,53.5,30.31,NNE,22,7.0,10.5,57,0.00,,,0.00,Rainwise IP-100,2013-01-24 01:03:00,
2013-01-23 20:09:00,69.1,53.0,30.31,ENE,67,8.2,13.8,57,0.00,,,0.00,Rainwise IP-100,2013-01-24 01:09:00,
2013-01-23 20:14:00,69.1,53.0,30.31,NNE,22,6.1,12.4,57,0.00,,,0.00,Rainwise IP-100,2013-01-24 01:14:00,
2013-01-23 20:19:00,69.1,53.5,30.32,NNE,22,6.5,11.9,58,0.00,,,0.00,Rainwise IP-100,2013-01-24 01:19:00,
2013-01-23 20:24:00,69.1,53.5,30.32,NE,45,10.3,13.8,58,0.00,,,0.00,Rainwise IP-100,2013-01-24 01:24:00,
2013-01-23 20:29:00,69.2,53.5,30.32,NNE,22,4.0,14.7,57,0.00,,,0.00,Rainwise IP-100,2013-01-24 01:29:00,
2013-01-23 20:34:00,69.2,53.5,30.32,NNE,22,5.1,8.2,57,0.00,,,0.00,Rainwise IP-100,2013-01-24 01:34:00,
2013-01-23 20:39:00,69.1,53.0,30.32,NE,45,5.6,12.1,57,0.00,,,0.00,Rainwise IP-100,2013-01-24 01:39:00,
2013-01-23 20:45:00,69.1,53.0,30.32,ENE,67,8.6,13.1,57,0.00,,,0.00,Rainwise IP-100,2013-01-24 01:45:00,
2013-01-23 20:50:00,69.1,53.5,30.32,ENE,67,5.1,11.7,58,0.00,,,0.00,Rainwise IP-100,2013-01-24 01:50:00,
2013-01-23 20:55:00,69.2,54.0,30.32,NNE,22,6.5,11.9,58,0.00,,,0.00,Rainwise IP-100,2013-01-24 01:55:00,
2013-01-23 21:00:00,69.2,53.5,30.32,ENE,67,7.7,11.2,57,0.00,,,0.00,Rainwise IP-100,2013-01-24 02:00:00,
2013-01-23 21:05:00,69.1,53.0,30.32,NNE,22,2.6,12.4,57,0.00,,,0.00,Rainwise IP-100,2013-01-24 02:05:00,
2013-01-23 21:10:00,69.1,53.5,30.32,ENE,67,5.4,12.4,58,0.00,,,0.00,Rainwise IP-100,2013-01-24 02:10:00,
2013-01-23 21:15:00,69.2,54.0,30.32,NNE,22,6.8,10.5,58,0.00,,,0.00,Rainwise IP-100,2013-01-24 02:15:00,
2013-01-23 21:20:00,69.2,54.0,30.32,NNE,22,6.8,9.6,58,0.00,,,0.00,Rainwise IP-100,2013-01-24 02:20:00,
2013-01-23 21:26:00,69.1,53.5,30.33,NNW,337,4.7,9.6,58,0.00,,,0.00,Rainwise IP-100,2013-01-24 02:26:00,
2013-01-23 21:31:00,68.2,54.5,30.32,NW,315,0.0,7.2,62,0.00,,,0.00,Rainwise IP-100,2013-01-24 02:31:00,
2013-01-23 21:36:00,67.3,56.5,30.33,NNW,337,2.8,5.6,67,0.00,,,0.00,Rainwise IP-100,2013-01-24 02:36:00,
2013-01-23 21:41:00,66.7,56.5,30.33,NNW,337,3.7,7.2,69,0.00,,,0.00,Rainwise IP-100,2013-01-24 02:41:00,
2013-01-23 21:46:00,66.2,56.5,30.33,NNW,337,3.5,6.1,71,0.00,,,0.00,Rainwise IP-100,2013-01-24 02:46:00,
2013-01-23 21:51:00,66.0,56.5,30.33,NNW,337,4.7,8.4,72,0.00,,,0.00,Rainwise IP-100,2013-01-24 02:51:00,
2013-01-23 21:56:00,65.5,56.5,30.33,NW,315,2.6,7.2,73,0.00,,,0.00,Rainwise IP-100,2013-01-24 02:56:00,
2013-01-23 22:02:00,65.2,56.5,30.32,NNW,337,6.1,8.9,74,0.00,,,0.00,Rainwise IP-100,2013-01-24 03:02:00,
2013-01-23 22:07:00,65.0,57.0,30.33,NNE,22,3.3,6.8,75,0.00,,,0.00,Rainwise IP-100,2013-01-24 03:07:00,
2013-01-23 22:12:00,64.8,57.0,30.33,NW,315,4.9,6.1,75,0.00,,,0.00,Rainwise IP-100,2013-01-24 03:12:00,
2013-01-23 22:17:00,64.7,56.5,30.33,NNW,337,4.2,6.5,76,0.00,,,0.00,Rainwise IP-100,2013-01-24 03:17:00,
2013-01-23 22:22:00,64.4,56.5,30.33,NNW,337,2.8,7.0,76,0.00,,,0.00,Rainwise IP-100,2013-01-24 03:22:00,
2013-01-23 22:27:00,64.2,56.5,30.33,NNW,337,3.7,5.8,76,0.00,,,0.00,Rainwise IP-100,2013-01-24 03:27:00,
2013-01-23 22:32:00,63.9,56.5,30.32,WNW,292,2.1,5.8,77,0.00,,,0.00,Rainwise IP-100,2013-01-24 03:32:00,
2013-01-23 22:37:00,63.7,56.0,30.33,WNW,292,2.6,3.7,77,0.00,,,0.00,Rainwise IP-100,2013-01-24 03:37:00,
2013-01-23 22:43:00,63.5,56.0,30.33,NNW,337,4.2,5.8,77,0.00,,,0.00,Rainwise IP-100,2013-01-24 03:43:00,
2013-01-23 22:48:00,63.3,56.5,30.33,NNW,337,4.0,6.5,78,0.00,,,0.00,Rainwise IP-100,2013-01-24 03:48:00,
2013-01-23 22:53:00,63.0,56.0,30.32,NNW,337,2.8,7.5,78,0.00,,,0.00,Rainwise IP-100,2013-01-24 03:53:00,
2013-01-23 22:58:00,62.9,56.5,30.32,NNW,337,3.3,6.3,79,0.00,,,0.00,Rainwise IP-100,2013-01-24 03:58:00,
2013-01-23 23:03:00,62.8,56.5,30.32,NNW,337,2.8,6.5,79,0.00,,,0.00,Rainwise IP-100,2013-01-24 04:03:00,
2013-01-23 23:08:00,62.7,56.0,30.32,NNW,337,4.2,5.1,79,0.00,,,0.00,Rainwise IP-100,2013-01-24 04:08:00,
2013-01-23 23:13:00,62.5,56.0,30.32,NNW,337,3.3,5.4,79,0.00,,,0.00,Rainwise IP-100,2013-01-24 04:13:00,
2013-01-23 23:19:00,62.5,56.0,30.32,NW,315,3.5,6.3,79,0.00,,,0.00,Rainwise IP-100,2013-01-24 04:19:00,
2013-01-23 23:24:00,62.4,56.0,30.32,NNW,337,3.7,4.4,79,0.00,,,0.00,Rainwise IP-100,2013-01-24 04:24:00,
2013-01-23 23:29:00,62.3,56.5,30.32,WNW,292,2.8,5.4,80,0.00,,,0.00,Rainwise IP-100,2013-01-24 04:29:00,
2013-01-23 23:34:00,62.2,56.0,30.32,WNW,292,2.1,4.2,80,0.00,,,0.00,Rainwise IP-100,2013-01-24 04:34:00,
2013-01-23 23:39:00,62.1,56.0,30.32,NNW,337,1.9,4.0,80,0.00,,,0.00,Rainwise IP-100,2013-01-24 04:39:00,
2013-01-23 23:44:00,62.0,56.0,30.32,NW,315,1.9,4.4,80,0.00,,,0.00,Rainwise IP-100,2013-01-24 04:44:00,
2013-01-23 23:49:00,61.9,56.0,30.32,WNW,292,1.6,3.0,80,0.00,,,0.00,Rainwise IP-100,2013-01-24 04:49:00,
2013-01-23 23:54:00,61.7,55.0,30.31,WNW,292,0.0,2.6,80,0.00,,,0.00,Rainwise IP-100,2013-01-24 04:54:00,